Home   Weather   Saint-Jérôme   Past weeks
Flag for Canada

Past Weather in Saint-Jérôme, Quebec, Canada — Yesterday and Last 2 Weeks

Now
34 °F

Passing clouds.


Feels Like: 28 °F
Forecast: 45 / 29 °F
Wind: 7 mph from Northeast

Location: Montreal / Mirabel

Current Time: Apr 8, 2020 at 2:25:30 am

Latest Report: Apr 8, 2020 at 1:00 am


Visibility: 25 mi

Pressure: 29.69 "Hg

Humidity: 60%

Dew Point: 21 °F

Location of Saint-JérômeLocation

Past Weather in Saint-Jérôme — Graph

°F

Saint-Jérôme Temperature Yesterday

Maximum temperature yesterday: 54 °F (at 2:00 pm)
Minimum temperature yesterday: 28 °F (at 5:00 am)
Average temperature yesterday: 42 °F

High & Low Weather Summary for the Past Weeks

 TemperatureHumidityPressure
High55 °F (Apr 6, 4:00 pm)100% (Mar 24, 4:21 am)30.21 "Hg (Mar 24, 4:21 am)
Low23 °F (Mar 25, 6:00 am)18% (Apr 6, 5:00 pm)29.67 "Hg (Mar 26, 9:00 pm)
Average38 °F73%29.98 "Hg
* Reported Mar 24 1:00 am — Apr 8 1:00 am, Saint-Jérôme. Weather by CustomWeather, © 2020

Note: Actual official high and low records may vary slightly from our data, if they occured in-between our weather recording intervals... More about our weather records

Saint-Jérôme Weather History for the Previous 24 Hours

Scroll right to see more
 ConditionsComfort  
Time TempWeatherWind HumidityBarometerVisibility
1:00 am
Wed, Apr 8
34 °FPassing clouds.7 mph60%29.69 "Hg25 mi
12:00 am36 °FPassing clouds.2 mph44%29.70 "Hg25 mi
11:00 pm
Tue, Apr 7
39 °FPassing clouds.2 mph39%29.71 "Hg25 mi
10:00 pm39 °FPassing clouds.2 mph39%29.73 "Hg25 mi
9:00 pm41 °FPassing clouds.2 mph33%29.75 "Hg25 mi
8:00 pm46 °FPassing clouds.3 mph27%29.74 "Hg25 mi
7:00 pm52 °FPassing clouds.5 mph20%29.73 "Hg45 mi
6:00 pm54 °FPassing clouds.8 mph18%29.74 "Hg45 mi
5:00 pm54 °FPassing clouds.10 mph19%29.74 "Hg45 mi
4:00 pm54 °FPassing clouds.12 mph19%29.75 "Hg45 mi
3:00 pm54 °FPassing clouds.10 mph19%29.77 "Hg45 mi
2:00 pm54 °FPassing clouds.13 mph28%29.81 "Hg45 mi
1:00 pm52 °FPassing clouds.10 mph24%29.83 "Hg45 mi
12:00 pm48 °FPassing clouds.9 mph37%29.85 "Hg45 mi
11:00 am45 °FPassing clouds.8 mph42%29.88 "Hg45 mi
10:00 am41 °FPassing clouds.6 mph45%29.92 "Hg45 mi
9:00 am37 °FPassing clouds.5 mph56%29.92 "Hg45 mi
8:00 am34 °FPassing clouds.5 mph60%29.92 "Hg45 mi
7:00 am28 °FPassing clouds.No wind74%29.92 "Hg45 mi
6:00 am28 °FPassing clouds.2 mph69%29.91 "Hg30 mi
5:00 am28 °FPassing clouds.2 mph69%29.91 "Hg25 mi
4:00 am32 °FPassing clouds.5 mph64%29.92 "Hg25 mi
3:00 am32 °FPassing clouds.2 mph60%29.91 "Hg25 mi
2:00 am32 °FPassing clouds.No wind55%29.91 "Hg25 mi
Weather by CustomWeather, © 2020

See weather overview

Advertising